Retour au catalogue

FENGYUN 1C DEB

LostPO
NORAD 38716·DEBRIS·🇨🇳 China

Lancé May 10, 1999 depuis Taiyuan Satellite Launch Center

Loading…

Prochains Passages (prochaines 24 heures)

TLE

PériméSource: Space-Track

Époque: Aug 11, 2022, 05:03 UTC

1 38716U 99025ETH 22223.21044345  .00000915  00000-0  96685-3 0  9996
2 38716  98.4169 211.9977 0273515 358.5887   1.4459 13.61652578640385

Suivez FENGYUN 1C DEB en temps réel avec AllMySat

Download on the App Store